Regional Weather Roundup
Issued by NWS

Home | Current Version | Previous Version | Graphics & Text | Print | Product List | Glossary On
Versions: 1 2 3 4 5 6 7 8 9 10 11 12 13 14 15 16 17 18 19 20 21 22 23 24 25 26 27 28 29 30 31 32 33 34 35 36 37 38 39 40 41 42 43 44 45 46 47 48 49 50
000
ASUS44 KMEG 211310
RWRTN
TENNESSEE HOURLY STATE WEATHER ROUNDUP
NATIONAL WEATHER SERVICE MEMPHIS TN
700 AM CST SUN JAN 21 2018

TNZ002-004-019-021-049-052-054-088>092-211400-
WEST TENNESSEE

CITY           SKY/WX    TMP DP  RH WIND       PRES   REMARKS
MEMPHIS INTL   CLOUDY    57  50  77 S12       30.12R
NWS MEMPHIS      N/A     54 N/A N/A MISG        N/A
JACKSON        CLOUDY    53  48  83 S8        30.13R
DYERSBURG      CLOUDY    53  49  86 S5        30.11S
SOMERVILLE     CLOUDY    54  50  87 S7G13     30.11S
COVINGTON      CLOUDY    55  50  82 S8        30.11S
UNION CITY     CLOUDY    50  46  87 S8        30.10S
BOLIVAR        MOCLDY    54  48  82 S9        30.13R
PARIS          CLOUDY    50  45  81 S9        30.11R
HUNTINGDON     CLOUDY    54  48  82 S7        30.12R
LEXINGTON      CLOUDY    54  45  71 S7        30.15S
SELMER         CLOUDY    54  45  71 VRB6G16   30.15S
SAVANNAH       CLOUDY    54  45  71 S7        30.17R
$$

TNZ008-025-027-028-033-062-065-066-211400-
NORTH MIDDLE TENNESSEE

CITY           SKY/WX    TMP DP  RH WIND       PRES   REMARKS
NASHVILLE      FAIR      51  38  60 CALM      30.18R
PORTLAND       MOCLDY    48  39  71 S13       30.16R
CLARKSVILLE    CLOUDY    52  42  69 S10       30.13R
SMYRNA         CLOUDY    47  39  74 SE5       30.20S
COOKEVILLE     CLOUDY    48  37  66 CALM      30.21R
GALLATIN       MOCLDY    50  39  66 S5        30.20S
CROSSVILLE     MOCLDY    44  35  70 S5        30.22S
$$

TNZ061-075-076-078-094-096-097-211400-
SOUTH MIDDLE TENNESSEE

CITY           SKY/WX    TMP DP  RH WIND       PRES   REMARKS
FAYETTEVILLE   CLOUDY    50  39  66 S6        30.22R
TULLAHOMA      CLOUDY    48  39  71 S3        30.21R
WINCHESTER     CLOUDY    46  37  71 CALM      30.23R
MCMINNVILLE    CLOUDY    48  39  71 CALM      30.21R
COLUMBIA       CLOUDY    52  41  66 S7G15     30.17S
SHELBYVILLE    MOCLDY    50  39  66 S5        30.21S
$$

TNZ017-018-042-046-047-211400-
NORTHEAST TENNESSEE

CITY           SKY/WX    TMP DP  RH WIND       PRES   REMARKS
TRI CITIES     CLOUDY    36  34  92 CALM      30.26S
ELIZABETHTON   CLOUDY    37  36  93 CALM      30.27S
$$

TNZ012-013-036-069-073-074-211400-
CENTRAL EAST TENNESSEE

CITY           SKY/WX    TMP DP  RH WIND       PRES   REMARKS
KNOXVILLE      CLOUDY    37  35  92 NW3       30.24S
OAK RIDGE      CLOUDY    41  36  82 CALM      30.26R
GATLINBURG     MOCLDY    34  32  93 CALM      30.25F
MORRISTOWN     CLOUDY    39  34  81 CALM      30.24S
JACKSBORO      PTCLDY    36  34  93 CALM      30.27S
$$

TNZ083-085-099-211400-
SOUTHEAST TENNESSEE

CITY           SKY/WX    TMP DP  RH WIND       PRES   REMARKS
CHATTANOOGA    MOCLDY    32  29  88 SE3       30.26R
DAYTON         PTSUNNY   34  34 100 CALM      30.25S
$$

SKY/WX REPORTED AS FAIR MEANS FEW OR NO CLOUDS BELOW
12 THOUSAND FEET.





USA.gov is the U.S. government's official web portal to all federal, state and local government web resources and services.